Location: Bratislava
(48.1500°N, 17.1167°E)
Time: 19:20:46
(UTC+01:00)

ISS - Visible Passes

Search period start: 26 January 2021 00:00
Search period end: 05 February 2021 00:00
Orbit: 418 x 421 km, 51.6° (Epoch: 27 January)

Date Brightness Start Highest point End Pass type
(mag) Time Alt. Az. Time Alt. Az. Time Alt. Az.
26 Jan -3.7 17:11:35 10° WSW 17:14:58 79° NNW 17:18:22 10° ENE visible
26 Jan -2.8 18:48:47 10° WNW 18:51:38 41° NNW 18:51:38 41° NNW visible
27 Jan -3.1 18:01:21 10° W 18:04:38 46° N 18:06:15 25° NE visible
27 Jan -0.8 19:38:26 10° WNW 19:39:13 16° WNW 19:39:13 16° WNW visible
28 Jan -3.3 17:13:53 10° W 17:17:12 51° N 17:20:32 10° ENE visible
28 Jan -2.9 18:51:03 10° WNW 18:53:50 44° NNW 18:53:50 44° NNW visible
29 Jan -3.2 18:03:40 10° WNW 18:06:56 45° N 18:08:28 26° ENE visible
29 Jan -0.8 19:40:34 10° WNW 19:41:27 17° WNW 19:41:27 17° WNW visible
30 Jan -3.4 18:53:11 10° WNW 18:56:07 60° NW 18:56:07 60° NW visible
31 Jan -3.6 18:05:49 10° WNW 18:09:10 58° NNE 18:10:50 26° E visible
31 Jan -0.9 19:42:44 10° WNW 19:43:49 18° W 19:43:49 18° W visible
01 Feb -3.3 17:18:25 10° WNW 17:21:44 49° N 17:25:01 10° E visible
01 Feb -3.4 18:55:17 10° WNW 18:58:36 58° SSW 18:58:36 58° SSW visible
02 Feb -3.7 18:07:52 10° WNW 18:11:15 83° SSW 18:13:30 20° ESE visible
02 Feb -0.7 19:45:20 10° W 19:46:29 15° WSW 19:46:29 15° WSW visible
03 Feb -1.9 18:57:33 10° W 19:00:26 26° SW 19:01:31 22° S visible
04 Feb -2.4 18:09:58 10° WNW 18:13:08 39° SW 18:16:19 10° SE visible
